STARLINK-35294 (65755 NORAD) Tracking and Keplerian Element Data

This shows tracking and keplerian element data for the satellite.

Feedback or suggestion? Click here.




ElementValue
Catalog65755
NameSTARLINK-35294
Epoch Orbit1438
Epoch Day354.24023127
Epoch Year2025
RAAN341.6318
Inclination53.162
Eccentricity0.0002153
Argument of Perigee93.5604
Mean Anonmoly266.5643
Mean Motion15.30216292
Decay Rate0.00027386
L11 65755U 25216X 25354.24023127 .00027386 00000+0 93289-3 0 9993
L22 65755 53.1620 341.6318 0002153 93.5604 266.5643 15.30216292 14380



Live tracking and technical data element details for STARLINK-35294 (NORAD 65755). STARLINK-35294 can be tracked NOW for your location showing map with azimuth and elevation plus other details from your city location.







IsCatalogInMostPopularTable: catalog: 65755, numindb: 2
Update: records affected: 1



GetName: 65755 STARLINK-35294

Hit Count: updated at: Tue, 10 Feb 2026 03:55:26 GMT